• Processing (Info)

  • MPEC 2000-L26 : 2000 HA24

    The following Minor Planet Electronic Circular may be linked-to from your own Web pages, but must not otherwise be redistributed electronically.

    A form allowing access to any MPEC is at the bottom of this page.


    Read MPEC 2000-L25 Read MPEC 2000-L27


    M.P.E.C. 2000-L26                                Issued 2000 June 7, 20:24 UT
    
         The Minor Planet Electronic Circulars contain information on unusual
             minor planets and routine data on comets.  They are published
       on behalf of Commission 20 of the International Astronomical Union by the
              Minor Planet Center, Smithsonian Astrophysical Observatory,
                              Cambridge, MA 02138, U.S.A.
    
                 Prepared using the Tamkin Foundation Computer Network
    
                 BMARSDEN@CFA.HARVARD.EDU or GWILLIAMS@CFA.HARVARD.EDU
              URL http://cfa-www.harvard.edu/iau/mpc.html  ISSN 1523-6714
    
                                       2000 HA24
    
                               Revision to MPEC 2000-J10
    
    Observations:
         K00H24A 2 1982 07 20.64471 21 30 08.56 -15 44 19.2                      260
         K00H24A 2 1982 07 20.68638 21 30 03.86 -15 44 29.8                      260
         K00H24A 2A1993 08 22.47899 23 58 50.17 +05 25 01.4          16.5        675
         K00H24A 2A1993 08 23.47656 23 59 04.64 +05 45 08.7                      675
         K00H24A 2A1993 08 23.49358 23 59 04.64 +05 45 28.1                      675
    
    Observer details:
    260 Siding Spring Observatory-DSS.  Measurers G. Forti, A. Boattini,
        M. Tombelli, G. D'Abramo.  1.2-m Schmidt.
    675 Palomar Mountain.  Observers E. F. Helin, K. Lawrence.  0.46-m Schmidt.
    
    Orbital elements:
    2000 HA24                                                            PHA 0.028
    Epoch 2000 Sept. 13.0 TT = JDT 2451800.5                Williams
    M 208.83065              (2000.0)            P               Q
    n   0.81043634     Peri.  141.65343     -0.02707020     -0.99920997
    a   1.1393490      Node   309.87815     +0.90753467     -0.01236210
    e   0.3186576      Incl.    2.17295     +0.41910384     -0.03777055
    P   1.22           H   19.0           G   0.15           U   4
    Residuals in seconds of arc
    820720 260  0.8-  2.1+    000501 860  1.3+  0.1-    000507 704  0.2-  0.3+
    820720 260 (1.0-  3.4+)   000501 860  0.0   0.1-    000508 360  0.2-  0.1-
    930822 675  1.1-  0.7-    000501 860  0.9-  0.1+    000508 360  0.2-  0.0
    930823 675  0.8+  0.5+    000501 860  0.1+  0.2-    000508 360  0.2+  0.1-
    930823 675  0.8+  0.9-    000502 704  0.4+  0.0     000508 046  0.2-  0.1+
    000428 704  1.3+  0.4-    000502 704  0.6+  0.0     000508 046  0.1-  0.0
    000428 704  0.7+  0.7-    000502 704  0.1+  0.1-    000508 046  0.2-  0.6-
    000428 704  0.7-  0.1-    000502 704  0.1-  0.4-    000508 046  0.2+  0.4-
    000428 704  0.4+  0.6-    000502 704  0.2-  0.3+    000509 704  0.9+  0.1-
    000428 704  0.6-  1.1+    000502 704  0.1+  0.7-    000509 704  0.7+  0.1-
    000429 704  0.0   0.2+    000502 704  0.4+  0.1-    000509 704  0.1+  0.1+
    000429 704  0.6-  1.1+    000502 704  0.6+  0.2+    000509 704  0.6-  1.5+
    000429 704  0.2+  0.6-    000502 704  0.3-  0.9+    000510 808  0.2+  1.5-
    000429 704  0.5+  0.9+    000502 704  0.6+  0.7-    000510 808  0.4+  0.9-
    000429 704  1.8+  0.6+    000502 651  1.1-  0.5+    000510 704  0.4+  0.3-
    000429 704  0.2-  0.0     000502 651  1.1-  0.8+    000510 704  0.7-  0.2+
    000429 704  0.2-  0.4+    000502 651  0.9-  0.2+    000510 704  0.2+  0.4+
    000429 704  0.3-  0.4+    000502 467  0.0   0.3-    000510 704  0.1-  0.3-
    000429 422  0.2+  0.0     000502 467  0.1+  0.1-    000510 046  0.5-  1.2-
    000429 422  0.1+  0.3+    000502 467  0.1-  0.0     000510 046  0.3-  0.3+
    000429 402  0.3+  0.2-    000502 467  0.3+  0.9-    000510 046  0.6-  0.2-
    000429 402  0.1-  0.2+    000502 046  1.0-  0.3-    000510 046  0.0   0.4-
    000430 704  0.5-  0.0     000502 046  0.1+  0.9-    000511 704  0.3-  0.1-
    000430 704  0.2+  0.1-    000502 046  0.2-  0.2+    000511 704  0.1-  0.7+
    000430 704  0.6-  0.2-    000502 046  0.0   0.3-    000511 704  0.1+  0.3+
    000430 704  0.2+  0.3+    000503 704  0.2+  0.3-    000511 704  1.3+  0.1-
    000430 704 (2.7-  1.0-)   000503 704  0.2-  0.4+    000513 118  0.2+  0.2+
    000430 704  0.1+  0.3+    000503 704  0.2+  1.1-    000513 118  1.3+  0.7-
    000430 704  1.0-  0.8-    000503 704  0.0   0.3+    000524 699  0.4-  0.6+
    000430 704  0.7+  0.0     000503 704  0.4+  0.2-    000524 699  0.7-  0.1-
    000430 704  0.2+  0.7-    000503 704  0.2-  0.4+    000524 699  1.0-  0.6+
    000430 704  0.2+  0.2-    000503 704  0.6-  0.4+    000524 699  0.8-  1.0+
    000430 046  0.8+  0.1+    000503 704  0.6+  0.6+    000530 747  0.9-  0.2-
    000430 046  0.3+  0.1-    000507 704  0.1-  0.9+    000530 747  0.7-  0.0
    000430 046  0.1-  0.6+    000507 704  0.3-  0.5+    000530 747  0.9-  0.1+
    000430 046  0.0   0.3+    000507 704  0.2-  0.7-
    000430 046  0.2-  0.4-    000507 704  0.0   0.1+
    
    Ephemeris:
    2000 HA24                a,e,i = 1.14, 0.32, 2                   q = 0.7763
    Date    TT    R. A. (2000) Decl.     Delta      r     Elong.  Phase     V
    2000 06 05    13 59.44   -18 29.1    0.483    1.416   139.2    27.9    19.4
    2000 06 15    13 59.90   -17 31.1    0.562    1.441   129.6    32.9    19.9
    2000 06 25    14 05.32   -17 08.7    0.648    1.461   121.2    36.5    20.4
    2000 07 05    14 14.45   -17 13.1    0.738    1.478   113.8    39.0    20.7
    2000 07 15    14 26.49   -17 37.0    0.830    1.490   107.2    40.7    21.1
    2000 07 25    14 40.77   -18 14.2    0.923    1.498   101.1    41.7    21.3
    2000 08 04    14 56.94   -18 59.7    1.016    1.502    95.4    42.3    21.6
    2000 08 14    15 14.73   -19 49.6    1.107    1.502    90.1    42.4    21.8
    2000 08 24    15 33.95   -20 40.4    1.196    1.497    85.0    42.3    21.9
    2000 09 03    15 54.49   -21 29.1    1.280    1.489    80.2    41.9    22.0
    
    Gareth V. Williams           (C) Copyright 2000 MPC           M.P.E.C. 2000-L26
    

    Read MPEC 2000-L25 Read MPEC 2000-L27


    MPEC number:

    Enter an MPEC number in one of the following forms:

    • 1997-B01 (the full form)
    • J97B01 (the packed version of the full form)
    • B01 (the abbreviated form)